Location: *
(28.3744°N, 81.5492°W)
Time: 03:17:53
(UTC+00:00)

OAO 3 Rocket - Pass Details

Date: 15 June 2025
Orbit: 615 x 663 km, 35.0° (Epoch: 11 July)

Event Time Altitude Azimuth Distance (km) Brightness Sun altitude
Rises 01:31:22 0° 291° (WNW) 2,985 8.2 -13.3°
Reaches altitude 10° 01:33:45 10° 290° (WNW) 2,071 7.0 -13.7°
Maximum altitude 01:38:36 76° 205° (SSW) 677 3.2 -14.6°
Enters shadow 01:41:23 25° 123° (ESE) 1,318 4.1 -15.1°
